Arlington, WA
on Sunday, January 6, 2013

Sunday
Previous Day Next Day
Daily Summary
 ActualAverageRecord
Temperature
Mean Temperature °F °F  
Max Temperature 44°F 42°F 57°F (2003)
Min Temperature 39°F 20°F 9°F (1979)
Degree Days
Heating Degree Days 24    
Moisture
Dew Point 37°F   
Average Humidity 84    
Maximum Humidity 93    
Minimum Humidity 76    
Precipitation
Precipitation 0.00 in in in ()
Wind
Wind Speed 10 mph   
Max Wind Speed 17 mph   
Max Gust Speed 22 mph   
Visibility 10 miles   
Events     
Averages and records for this station are not official NWS values.
Key: T is trace of precipitation, MM is missing value
Source: NWS Daily Summary
Seasonal Weather Averages
Time(PST)TemperatureDew PointHumidity Pressure Visibility Wind DirectionWind SpeedGust SpeedPrecipitationEvents Conditions
12:15 AM 39.2°F 37.4°F 93% 30.16 in 5.0 miles SSE 9.2 mph - N/A   Overcast
12:35 AM 39.2°F 37.4°F 93% 30.16 in 9.0 miles SSE 8.1 mph - N/A   Overcast
12:55 AM 39.2°F 37.4°F 93% 30.16 in 10.0 miles SE 9.2 mph - N/A   Overcast
1:35 AM 39.2°F 37.4°F 93% 30.16 in 10.0 miles SE 11.5 mph - N/A   Overcast
1:55 AM 39.2°F 37.4°F 93% 30.17 in 10.0 miles SSE 6.9 mph - N/A   Overcast
2:15 AM 39.2°F 37.4°F 93% 30.18 in 10.0 miles SSE 5.8 mph - N/A   Overcast
2:35 AM 39.2°F 37.4°F 93% 30.18 in 10.0 miles SSE 6.9 mph - N/A   Overcast
2:55 AM 39.2°F 37.4°F 93% 30.18 in 10.0 miles SE 13.8 mph - N/A   Overcast
3:15 AM 39.2°F 37.4°F 93% 30.18 in 10.0 miles SE 11.5 mph - N/A   Overcast
3:35 AM 39.2°F 37.4°F 93% 30.17 in 10.0 miles SE 8.1 mph - N/A   Overcast
3:55 AM 39.2°F 37.4°F 93% 30.17 in 10.0 miles SE 6.9 mph - N/A   Overcast
4:35 AM 41.0°F 37.4°F 87% 30.16 in 10.0 miles SE 8.1 mph - N/A   Overcast
4:55 AM 41.0°F 37.4°F 87% 30.16 in 10.0 miles SE 6.9 mph - N/A   Overcast
5:15 AM 41.0°F 37.4°F 87% 30.16 in 10.0 miles SE 5.8 mph - N/A   Overcast
5:35 AM 41.0°F 37.4°F 87% 30.16 in 10.0 miles Calm Calm - N/A   Overcast
5:55 AM 41.0°F 37.4°F 87% 30.16 in 10.0 miles Calm Calm - N/A   Overcast
6:15 AM 41.0°F 37.4°F 87% 30.16 in 10.0 miles Calm Calm - N/A   Overcast
6:35 AM 41.0°F 35.6°F 81% 30.16 in 10.0 miles SSE 4.6 mph - N/A   Overcast
6:55 AM 41.0°F 37.4°F 87% 30.15 in 10.0 miles SE 3.5 mph - N/A   Overcast
7:15 AM 41.0°F 37.4°F 87% 30.15 in 10.0 miles SE 6.9 mph - N/A   Overcast
7:35 AM 42.8°F 35.6°F 76% 30.16 in 10.0 miles SE 9.2 mph - N/A   Overcast
7:55 AM 42.8°F 37.4°F 81% 30.17 in 10.0 miles SE 9.2 mph - N/A   Overcast
8:15 AM 42.8°F 37.4°F 81% 30.17 in 10.0 miles SSE 10.4 mph - N/A   Overcast
8:35 AM 42.8°F 37.4°F 81% 30.18 in 10.0 miles SE 10.4 mph - N/A   Overcast
8:55 AM 42.8°F 37.4°F 81% 30.18 in 10.0 miles SE 12.7 mph - N/A   Overcast
9:15 AM 42.8°F 37.4°F 81% 30.17 in 10.0 miles SSE 16.1 mph - N/A   Overcast
9:35 AM 42.8°F 37.4°F 81% 30.18 in 10.0 miles SE 16.1 mph - N/A   Overcast
9:55 AM 42.8°F 37.4°F 81% 30.18 in 10.0 miles SSE 10.4 mph - N/A   Overcast
10:15 AM 42.8°F 37.4°F 81% 30.19 in 10.0 miles SSE 13.8 mph - N/A   Overcast
10:35 AM 42.8°F 37.4°F 81% 30.19 in 10.0 miles SE 11.5 mph - N/A   Overcast
10:55 AM 44.6°F 37.4°F 76% 30.18 in 10.0 miles SSE 11.5 mph - N/A   Overcast
11:15 AM 44.6°F 37.4°F 76% 30.17 in 10.0 miles SSE 13.8 mph - N/A   Overcast
11:35 AM 44.6°F 37.4°F 76% 30.16 in 10.0 miles SSE 11.5 mph 19.6 mph N/A   Overcast
11:55 AM 44.6°F 39.2°F 81% 30.14 in 10.0 miles SE 11.5 mph - N/A   Overcast
12:15 PM 44.6°F 37.4°F 76% 30.14 in 10.0 miles SSE 16.1 mph - N/A   Overcast
12:35 PM 44.6°F 37.4°F 76% 30.13 in 10.0 miles SSE 13.8 mph 19.6 mph N/A   Overcast
12:55 PM 44.6°F 37.4°F 76% 30.13 in 10.0 miles SSE 11.5 mph 19.6 mph N/A   Overcast
1:15 PM 44.6°F 37.4°F 76% 30.13 in 10.0 miles SSE 10.4 mph - N/A   Overcast
1:35 PM 44.6°F 37.4°F 76% 30.12 in 10.0 miles SE 17.3 mph 20.7 mph N/A   Overcast
1:55 PM 44.6°F 37.4°F 76% 30.12 in 10.0 miles SSE 11.5 mph - N/A   Overcast
2:35 PM 44.6°F 37.4°F 76% 30.12 in 10.0 miles SSE 12.7 mph - N/A   Mostly Cloudy
2:55 PM 44.6°F 37.4°F 76% 30.11 in 10.0 miles SE 12.7 mph 20.7 mph N/A   Overcast
3:15 PM 44.6°F 37.4°F 76% 30.11 in 10.0 miles SSE 11.5 mph - N/A   Overcast
3:35 PM 44.6°F 39.2°F 81% 30.10 in 10.0 miles SE 12.7 mph - N/A   Overcast
3:55 PM 42.8°F 37.4°F 81% 30.11 in 10.0 miles SE 13.8 mph - N/A   Overcast
4:15 PM 42.8°F 39.2°F 87% 30.11 in 10.0 miles ESE 16.1 mph 21.9 mph N/A   Overcast
4:35 PM 42.8°F 37.4°F 81% 30.10 in 10.0 miles ESE 13.8 mph 19.6 mph N/A   Overcast
4:55 PM 42.8°F 37.4°F 81% 30.09 in 10.0 miles ESE 15.0 mph 20.7 mph N/A   Overcast
5:15 PM 42.8°F 37.4°F 81% 30.08 in 10.0 miles ESE 15.0 mph - N/A   Overcast
5:35 PM 42.8°F 37.4°F 81% 30.08 in 10.0 miles ESE 13.8 mph 19.6 mph N/A   Overcast
5:55 PM 42.8°F 37.4°F 81% 30.08 in 10.0 miles SE 13.8 mph - N/A   Overcast
6:15 PM 42.8°F 37.4°F 81% 30.08 in 10.0 miles SE 11.5 mph - N/A   Overcast
6:35 PM 41.0°F 37.4°F 87% 30.08 in 10.0 miles SE 10.4 mph - N/A   Overcast
7:15 PM 42.8°F 37.4°F 81% 30.08 in 10.0 miles SE 12.7 mph - N/A   Overcast
7:35 PM 42.8°F 37.4°F 81% 30.08 in 10.0 miles SE 11.5 mph - N/A   Overcast
8:15 PM 41.0°F 37.4°F 87% 30.08 in 10.0 miles SE 10.4 mph - N/A   Overcast
8:35 PM 41.0°F 37.4°F 87% 30.07 in 10.0 miles SE 11.5 mph - N/A   Overcast
8:55 PM 41.0°F 37.4°F 87% 30.07 in 10.0 miles ESE 13.8 mph 19.6 mph N/A   Overcast
9:35 PM 39.2°F 35.6°F 87% 30.04 in 10.0 miles SE 17.3 mph 20.7 mph N/A   Overcast
9:55 PM 39.2°F 35.6°F 87% 30.03 in 10.0 miles ESE 9.2 mph - N/A   Overcast
10:15 PM 39.2°F 35.6°F 87% 30.04 in 10.0 miles ESE 8.1 mph - N/A   Overcast
10:35 PM 39.2°F 35.6°F 87% 30.03 in 10.0 miles ESE 8.1 mph - N/A   Overcast
10:55 PM 39.2°F 35.6°F 87% 30.02 in 10.0 miles ESE 8.1 mph - N/A   Overcast
11:15 PM 41.0°F 35.6°F 81% 30.01 in 10.0 miles ESE 8.1 mph - N/A   Overcast
11:35 PM 41.0°F 37.4°F 87% 30.00 in 10.0 miles ESE 9.2 mph - N/A   Overcast
11:55 PM 39.2°F 37.4°F 93% 30.00 in 10.0 miles East 6.9 mph - N/A   Overcast
Moon Phase
Jan. 06 Jan. 11 Jan. 18 Jan. 26 Feb. 03
Sunrise:07:58 AM (PST) Moon Rise:02:08 AM (PST)1/6
Sunset:04:31 PM (PST) Moon Set:12:10 PM (PST)1/6

Copyright © 2014 The Weather Underground, Inc.